Temperature
18 17 17 17 16 16 15 15 14 14 13 13 13 12 12 12 12 11 11 11 11 11 11 11 11 11 10 10 10 10 10 10 10 11 11 11 11 12 12 12 12 13 13
18 18 17 17 16 16 16 15 14 14 13 13 13 12 12 12 11 11 11 11 11 11 11 11 11 10 10 10 10 10 10 10 10 10 11 11 11 11 11 12 12 12 12
19 18 18 17 17 16 16 15 14 14 14 13 13 12 12 12 11 11 11 11 11 11 11 10 10 10 10 10 10 10 10 10 10 10 10 10 11 11 11 11 11 12 12
19 18 18 17 17 16 16 15 15 14 14 13 13 13 12 12 12 11 11 11 11 11 10 10 10 10 10 10 10 10 10 10 9 9 10 10 10 10 10 11 11 11 12
19 19 18 17 17 16 16 15 15 14 14 14 13 13 12 12 12 11 11 11 11 10 10 10 10 10 10 10 10 10 9 9 9 9 9 10 10 10 10 10 10 11 11
19 19 18 18 17 17 16 16 15 15 14 14 13 13 13 12 12 11 11 11 11 10 10 10 10 10 10 10 9 9 9 9 9 9 9 9 10 10 10 10 10 10 10
19 19 18 18 17 17 16 16 15 15 15 14 14 13 13 13 12 12 11 11 11 11 10 10 10 10 10 10 9 9 9 9 9 9 9 9 9 9 9 9 9 9 10
20 19 18 18 18 17 16 16 16 15 15 15 14 14 13 13 12 12 11 11 11 11 10 10 10 10 10 9 9 9 9 9 9 9 9 9 9 9 9 9 9 9 9
20 19 19 18 18 17 17 16 16 16 15 15 14 14 14 13 13 12 11 11 11 11 11 10 10 10 10 9 9 9 9 9 9 9 9 9 9 9 9 8 8 8 9
20 20 19 18 18 17 17 17 16 16 15 15 15 14 14 13 13 12 12 11 11 11 11 11 10 10 10 9 9 9 9 9 9 9 9 8 8 8 8 8 8 8 8
20 19 19 18 18 17 17 16 16 16 15 15 15 14 14 13 13 13 12 12 11 11 11 11 10 10 10 9 9 9 9 9 8 8 8 8 8 8 8 8 8 8 8
19 19 18 18 17 17 16 16 16 15 15 15 14 14 14 14 13 13 12 12 11 11 11 11 10 10 9 9 9 9 8 8 8 8 8 8 8 9 8 8 8 8 8
18 18 17 17 17 16 16 15 15 15 14 14 14 14 14 14 13 13 12 12 12 11 11 11 10 10 9 9 9 9 8 8 8 8 8 8 8 8 8 8 8 8 8
17 17 16 16 16 15 15 15 15 14 14 14 14 14 14 14 13 13 12 12 12 11 11 10 10 10 9 9 9 9 8 8 8 8 8 8 8 8 8 8 8 8 8
16 15 15 15 15 14 14 14 14 14 14 13 13 13 13 13 13 13 12 12 12 11 11 10 10 10 9 9 9 9 8 8 8 8 8 8 8 8 8 8 8 8 8
14 14 14 13 13 13 13 13 13 13 13 13 13 13 13 13 13 13 12 12 11 11 10 10 10 10 9 9 9 9 9 8 8 8 8 8 8 8 8 8 8 8 8
13 13 12 12 12 12 12 12 12 12 13 13 13 13 13 13 13 12 12 11 11 11 10 10 10 10 9 9 9 9 9 8 8 8 8 8 8 8 8 8 8 8 8
12 12 12 11 11 11 11 11 11 11 11 12 12 12 12 12 12 12 12 11 11 11 11 10 10 10 9 9 9 9 8 8 8 8 8 8 8 8 8 8 8 8 8
11 11 11 11 10 10 10 10 10 10 10 11 11 11 12 12 12 11 11 11 11 11 10 10 10 9 9 9 9 8 8 8 8 8 8 8 8 8 8 8 8 8 8
10 10 10 10 10 10 10 10 10 10 10 10 10 11 11 11 11 11 11 11 10 10 10 10 9 9 9 9 9 8 8 8 8 8 8 8 8 8 8 8 8 8 8
10 9 9 9 9 9 9 9 9 9 9 9 9 10 10 10 10 10 10 10 10 10 10 9 9 9 9 8 8 8 8 8 8 8 8 8 8 8 8 8 8 8 8
9 9 9 8 8 8 8 8 8 8 8 8 8 9 9 9 9 9 9 9 9 9 9 9 9 8 8 8 8 8 8 8 8 8 8 8 8 8 8 8 8 8 8
9 8 8 8 7 7 7 7 7 7 7 7 8 8 8 8 9 9 9 9 9 9 9 8 8 8 8 8 8 7 7 7 7 7 7 7 8 8 8 8 8 8 8
8 8 7 7 7 6 6 7 7 6 7 7 7 7 7 8 8 8 8 8 8 8 8 8 8 8 8 7 7 7 7 7 7 7 7 7 7 7 8 8 8 8 8
7 7 6 6 6 5 5 6 6 6 6 6 6 6 7 7 7 7 7 7 7 7 7 7 7 7 7 7 7 7 7 7 7 7 7 7 7 7 7 7 8 8 8
6 5 5 5 5 5 5 5 5 5 5 5 5 5 6 6 6 7 7 7 7 7 7 7 7 7 7 7 7 7 7 7 7 7 7 7 7 7 7 7 7 7 8
Wind_Speed
10 8 9 8 7 7 6 6 5 4 5 5 4 4 5 5 5 5 6 6 6 6 5 5 6 5 4 4 4 3 3 4 5 5 4 4 4 6 7 9 11 11 13
10 9 9 8 7 7 7 6 6 6 6 6 5 5 5 6 5 5 6 6 6 7 7 6 7 5 5 5 4 5 5 5 5 6 4 3 5 6 6 6 6 9 11
10 10 9 8 8 8 8 7 7 7 6 6 5 6 6 6 6 6 6 7 7 7 7 7 7 6 7 5 6 6 5 5 4 5 5 3 4 4 5 5 6 5 8
10 10 10 10 9 9 8 8 8 7 7 7 6 7 7 7 6 6 6 6 6 6 6 7 7 7 8 8 6 7 6 6 5 5 5 5 4 4 3 4 5 4 5
11 11 11 10 9 8 8 8 8 7 8 7 7 6 6 6 6 6 6 6 6 6 6 6 7 9 11 9 7 7 7 6 5 5 5 4 5 4 4 3 4 5 5
12 12 10 9 9 9 9 8 8 8 8 7 7 7 7 6 8 10 8 6 6 7 7 7 7 9 11 12 12 11 10 8 7 6 6 6 7 6 5 4 4 3 4
12 11 10 10 10 10 9 8 8 8 8 7 8 7 8 9 12 13 13 8 7 7 8 7 7 8 9 7 9 11 11 13 13 9 8 9 8 7 6 6 6 6 6
12 11 11 10 10 9 9 9 9 7 7 7 8 8 8 10 13 14 14 9 8 9 9 9 8 9 10 9 9 8 9 9 10 9 9 10 10 9 8 8 7 6 6
12 12 11 11 10 10 10 10 8 7 7 7 6 8 8 10 13 14 13 6 7 9 9 9 9 9 13 13 9 9 9 9 11 14 14 13 14 14 10 5 5 5 6
13 12 11 11 11 11 11 10 8 7 8 8 8 8 9 10 13 15 14 6 7 8 8 8 12 12 12 12 7 8 9 9 8 8 8 9 9 10 12 9 8 7 6
10 9 9 10 10 10 10 8 8 8 8 8 9 9 9 11 13 16 15 8 9 8 7 7 8 12 13 12 9 8 11 10 7 7 7 7 7 7 8 8 9 9 9
7 8 9 9 8 8 8 8 7 8 8 9 8 9 8 9 11 13 16 16 13 9 9 8 8 12 13 12 9 11 14 11 6 6 7 8 8 8 8 8 9 10 11
6 7 7 7 7 6 7 8 7 7 7 8 8 9 9 7 9 15 16 16 17 11 9 11 11 12 11 10 13 16 12 7 6 7 9 10 9 8 7 6 7 8 9
2 3 3 4 5 5 5 6 6 7 8 9 9 10 9 7 7 7 7 8 10 10 8 9 11 12 11 12 11 10 8 8 8 9 8 9 7 6 7 6 6 6 5
2 2 3 3 5 5 5 6 8 9 10 11 10 10 9 10 12 14 10 8 7 7 5 3 3 4 5 6 7 8 7 7 8 9 9 9 8 8 8 7 6 6 6
4 4 4 4 4 5 6 8 12 14 17 18 19 16 12 15 15 15 17 14 12 10 6 4 6 7 8 8 8 8 7 8 8 8 8 9 9 9 9 7 6 7 8
3 4 4 4 5 6 6 7 10 11 13 16 18 19 19 18 16 15 14 12 11 11 6 7 8 8 8 8 8 8 8 8 7 7 8 9 9 9 8 8 7 7 7
5 6 6 5 6 6 7 7 7 8 9 9 12 16 17 18 17 15 12 9 6 7 7 9 9 9 8 8 8 8 8 7 7 7 8 8 8 8 8 8 8 8 8
5 5 5 6 6 6 7 7 7 8 8 9 8 9 12 12 11 10 11 7 8 8 9 9 9 9 8 8 8 8 7 7 7 7 7 8 7 7 8 8 8 10 9
5 9 8 6 6 7 7 7 7 7 8 8 8 8 6 3 4 5 7 8 8 8 8 8 8 8 8 7 7 7 6 7 7 7 7 7 7 7 8 9 8 7 8
5 7 10 8 7 7 7 7 7 8 8 8 8 9 9 5 6 7 6 7 8 8 8 7 7 7 7 6 6 7 7 7 7 7 7 6 6 6 7 7 8 8 7
5 6 6 7 7 7 8 7 7 7 7 8 7 7 9 5 5 5 5 7 7 7 6 6 6 6 5 6 6 6 6 6 6 6 6 6 6 6 6 6 7 7 7
5 6 7 6 6 8 8 7 7 7 7 7 7 7 5 5 5 5 5 5 5 5 5 5 5 5 5 5 5 5 6 6 6 6 6 6 6 6 6 7 8 7 7
5 6 6 6 6 6 7 7 7 8 8 8 7 6 5 4 4 4 4 4 4 4 4 3 4 6 7 5 4 4 5 5 5 5 7 7 7 6 6 6 7 7 7
5 6 6 6 7 7 7 7 7 8 8 7 7 6 5 5 4 4 3 2 3 3 3 3 3 4 5 5 5 4 6 7 7 6 6 6 7 8 7 7 7 6 7
5 6 6 6 6 7 7 7 8 8 7 7 6 6 6 5 5 3 2 2 2 2 2 2 3 4 4 4 4 5 6 7 8 8 6 6 8 8 7 7 8 7 7
Wind_Direction
172 173 169 178 182 180 185 197 199 202 201 207 223 234 241 246 247 236 239 243 243 253 255 247 252 253 253 257 251 242 230 204 246 273 263 282 296 295 299 298 288 274 269
174 172 176 180 180 182 193 202 201 204 210 214 220 227 237 240 239 234 243 243 237 243 249 247 252 255 252 250 245 246 245 229 227 267 281 285 282 283 284 288 286 281 269
174 174 179 185 188 196 204 208 206 207 214 220 220 227 236 239 238 239 239 243 240 239 239 239 247 247 252 250 245 245 246 251 228 242 267 268 274 283 295 295 290 286 282
176 177 186 195 198 202 205 206 208 208 213 222 226 230 233 236 238 243 242 241 243 246 243 240 243 240 242 246 247 243 242 247 245 246 261 268 270 278 284 290 303 300 296
178 185 196 201 200 200 203 207 210 212 217 219 223 231 233 233 234 230 229 231 234 246 251 249 250 251 248 244 244 237 234 235 240 243 256 268 270 277 273 270 282 294 293
183 193 196 194 197 201 206 209 212 219 222 219 221 226 233 237 233 222 216 224 228 235 249 257 262 265 265 264 261 252 231 226 230 234 244 247 256 251 251 259 267 292 296
189 192 191 193 199 206 208 208 214 218 218 221 225 226 232 241 244 239 235 223 227 235 240 250 264 266 267 263 268 270 261 246 231 225 234 243 248 243 241 256 251 245 251
191 194 194 195 203 207 207 213 216 213 214 220 226 229 235 245 245 243 241 230 230 238 238 239 247 261 267 258 259 262 257 256 247 237 233 242 243 240 230 238 246 255 258
197 200 200 198 202 206 212 218 215 212 218 222 224 227 235 249 249 244 239 224 233 244 244 242 242 252 262 265 256 254 260 264 262 250 241 243 247 248 240 238 244 247 265
205 205 202 200 204 209 214 215 212 211 221 225 233 232 234 244 248 244 234 216 232 246 250 247 246 248 257 266 244 238 251 259 262 270 264 262 258 258 252 230 227 234 244
204 200 203 205 210 213 214 214 213 216 224 230 240 243 239 243 252 250 236 211 224 237 244 248 246 246 252 256 242 229 243 252 256 254 259 263 264 258 253 237 225 225 230
192 200 210 214 216 216 215 222 219 218 228 237 244 255 252 248 247 251 242 226 220 223 236 241 242 246 250 252 247 245 253 260 255 254 258 261 259 258 255 246 236 232 232
202 215 221 220 219 215 212 222 226 224 231 242 242 251 257 251 248 246 246 239 227 223 236 238 241 248 253 256 254 255 257 250 240 247 253 257 252 250 251 254 254 246 243
212 234 238 234 239 235 228 226 230 236 239 245 246 250 253 251 246 242 237 236 231 228 239 248 253 257 255 252 258 261 248 236 233 243 250 255 253 248 247 244 251 250 250
7 328 304 280 265 261 256 247 245 244 242 241 246 244 243 248 243 223 213 215 208 209 199 230 247 256 258 257 257 256 250 242 241 243 246 252 252 249 250 240 236 237 238
12 343 319 301 290 282 279 281 265 257 259 251 247 245 244 241 242 229 222 216 200 178 168 223 243 247 252 257 259 260 252 245 244 242 242 243 246 247 249 243 230 231 240
358 328 314 307 300 294 287 283 289 288 275 265 258 251 245 245 241 230 221 210 196 173 194 230 240 246 249 249 251 253 257 252 243 241 244 244 243 244 242 241 235 233 237
347 331 322 307 301 297 294 290 286 287 291 288 278 262 251 245 240 230 206 174 194 196 219 233 241 244 245 246 248 250 253 255 250 246 246 245 242 240 238 237 234 231 235
341 326 318 308 303 298 296 296 294 290 286 285 290 287 265 250 243 225 185 195 217 222 224 232 239 242 243 244 247 247 248 252 254 250 248 246 241 234 237 236 233 233 230
322 319 323 314 309 307 304 302 299 297 295 291 285 280 272 235 224 214 203 215 225 232 231 233 238 241 241 244 246 246 249 251 255 253 252 251 243 234 235 234 231 230 229
310 313 316 316 308 304 303 300 297 294 294 295 290 284 266 241 237 231 217 214 220 227 231 233 238 240 239 241 243 245 247 251 251 252 252 250 244 240 238 235 232 230 229
302 302 303 303 302 304 304 300 299 296 298 300 298 293 278 257 248 244 236 232 227 223 224 224 229 233 235 237 238 241 247 254 255 253 254 252 246 242 240 237 235 231 227
300 304 304 303 303 309 313 313 312 309 307 305 298 293 284 266 260 256 247 238 229 224 222 217 226 240 244 240 234 235 245 253 257 256 259 262 256 246 240 239 238 233 228
302 305 306 308 309 310 311 313 313 313 310 307 306 301 297 287 272 264 248 233 230 228 221 218 231 242 247 248 241 238 246 255 261 260 258 261 263 257 245 241 239 232 229
314 316 316 315 313 312 312 314 314 314 315 313 314 316 313 305 294 289 280 261 252 243 236 230 238 251 255 256 261 263 268 269 269 270 263 258 261 260 253 246 241 238 228
327 327 325 322 321 319 318 318 319 320 320 319 320 324 323 319 313 302 292 278 271 271 273 265 262 266 273 274 280 289 289 283 278 269 261 259 258 259 254 249 242 236 230
Height
1531 1532 1532 1533 1533 1533 1533 1533 1533 1533 1533 1532 1532 1531 1531 1530 1529 1528 1527 1526 1525 1525 1524 1523 1523 1522 1521 1521 1520 1520 1519 1519 1516 1515 1515 1515 1515 1515 1514 1514 1514 1514 1513
1528 1529 1529 1530 1530 1530 1530 1530 1530 1530 1530 1529 1529 1528 1527 1526 1525 1524 1523 1522 1522 1521 1520 1519 1519 1518 1517 1516 1516 1515 1515 1514 1513 1511 1510 1510 1510 1510 1509 1509 1508 1508 1508
1525 1526 1526 1527 1527 1527 1527 1527 1527 1527 1527 1526 1525 1525 1524 1523 1522 1521 1520 1519 1518 1517 1516 1515 1514 1514 1512 1512 1511 1510 1510 1509 1508 1507 1505 1505 1505 1505 1504 1503 1503 1502 1502
1521 1522 1523 1523 1524 1524 1524 1524 1524 1524 1523 1523 1522 1521 1520 1519 1518 1517 1516 1515 1514 1513 1512 1511 1510 1509 1508 1507 1506 1505 1505 1504 1503 1502 1501 1500 1500 1500 1499 1498 1497 1497 1496
1517 1518 1519 1520 1520 1521 1521 1521 1521 1520 1520 1519 1518 1517 1516 1515 1514 1512 1511 1510 1509 1508 1507 1506 1504 1503 1502 1501 1501 1500 1500 1499 1498 1497 1496 1495 1494 1494 1494 1493 1492 1491 1491
1513 1514 1515 1516 1516 1517 1517 1517 1517 1516 1516 1515 1514 1513 1512 1510 1509 1508 1507 1506 1505 1503 1502 1501 1499 1498 1496 1496 1495 1495 1494 1493 1492 1492 1491 1489 1489 1489 1488 1488 1487 1486 1485
1508 1510 1511 1512 1512 1513 1513 1513 1512 1512 1512 1511 1509 1508 1507 1506 1505 1503 1502 1501 1500 1499 1497 1496 1494 1492 1491 1490 1489 1489 1488 1488 1488 1487 1485 1484 1483 1483 1483 1482 1481 1480 1479
1504 1505 1506 1507 1507 1508 1508 1508 1508 1507 1507 1506 1505 1503 1502 1501 1500 1498 1497 1496 1495 1494 1492 1490 1489 1487 1486 1485 1484 1483 1482 1482 1481 1480 1479 1478 1477 1477 1477 1476 1475 1473 1472
1499 1500 1501 1502 1503 1503 1503 1503 1503 1503 1502 1501 1500 1498 1497 1496 1495 1494 1492 1491 1489 1488 1487 1485 1484 1482 1481 1480 1479 1477 1476 1475 1475 1474 1472 1471 1470 1470 1470 1469 1468 1467 1465
1493 1495 1496 1497 1497 1497 1498 1498 1498 1498 1497 1496 1495 1493 1492 1490 1490 1488 1487 1485 1484 1482 1481 1480 1479 1477 1476 1475 1473 1472 1470 1469 1468 1467 1465 1464 1463 1463 1463 1462 1461 1460 1459
1489 1490 1491 1491 1492 1492 1493 1493 1492 1492 1491 1490 1489 1487 1486 1485 1484 1483 1481 1479 1478 1476 1475 1474 1473 1472 1470 1469 1467 1466 1464 1463 1461 1459 1458 1456 1456 1455 1454 1454 1454 1453 1452
1485 1485 1486 1486 1487 1487 1487 1487 1487 1486 1485 1483 1482 1481 1480 1479 1477 1476 1475 1473 1472 1470 1469 1468 1467 1465 1464 1462 1461 1459 1458 1456 1454 1452 1450 1449 1448 1447 1447 1446 1446 1445 1445
1481 1481 1482 1482 1482 1482 1482 1481 1480 1479 1478 1476 1475 1473 1472 1472 1470 1469 1468 1467 1465 1463 1462 1461 1460 1458 1457 1455 1453 1452 1450 1448 1446 1444 1442 1441 1441 1440 1439 1438 1438 1438 1438
1477 1477 1477 1477 1477 1476 1475 1474 1474 1472 1471 1469 1468 1466 1464 1464 1463 1462 1461 1459 1458 1457 1455 1454 1453 1451 1449 1447 1446 1444 1442 1440 1438 1437 1435 1434 1434 1433 1432 1432 1431 1431 1431
1474 1474 1473 1472 1471 1470 1469 1468 1466 1465 1464 1462 1460 1458 1456 1455 1454 1454 1453 1452 1450 1450 1448 1447 1445 1444 1442 1440 1438 1436 1434 1433 1431 1429 1428 1427 1426 1425 1425 1425 1424 1424 1424
1471 1470 1469 1468 1466 1464 1463 1461 1459 1457 1455 1453 1452 1450 1447 1446 1445 1445 1445 1444 1443 1442 1441 1439 1438 1436 1434 1432 1430 1428 1427 1425 1424 1422 1421 1420 1419 1418 1418 1418 1418 1417 1417
1469 1467 1465 1463 1461 1459 1456 1453 1450 1448 1446 1444 1442 1440 1438 1437 1436 1436 1436 1435 1434 1433 1432 1431 1430 1428 1427 1425 1423 1421 1419 1418 1417 1415 1414 1413 1412 1411 1410 1410 1410 1410 1410
1466 1464 1461 1459 1456 1453 1450 1447 1444 1440 1437 1434 1433 1431 1429 1428 1427 1427 1426 1426 1425 1425 1424 1423 1422 1421 1419 1417 1416 1414 1412 1411 1410 1408 1407 1406 1405 1404 1403 1403 1403 1403 1403
1462 1460 1457 1454 1451 1448 1444 1441 1437 1434 1430 1426 1424 1422 1421 1420 1419 1418 1417 1417 1416 1416 1415 1415 1414 1413 1411 1410 1408 1407 1406 1404 1403 1401 1400 1399 1398 1397 1396 1396 1396 1396 1397
1459 1456 1452 1449 1445 1441 1438 1434 1430 1427 1423 1420 1417 1415 1413 1412 1410 1409 1408 1408 1407 1407 1407 1407 1406 1405 1404 1403 1402 1400 1399 1398 1396 1395 1393 1392 1391 1390 1389 1389 1389 1390 1390
1454 1451 1448 1444 1440 1436 1432 1428 1424 1420 1416 1413 1410 1408 1406 1404 1403 1401 1400 1400 1400 1400 1399 1399 1399 1398 1397 1396 1395 1394 1393 1391 1390 1388 1387 1386 1385 1384 1383 1383 1383 1383 1384
1450 1446 1442 1438 1434 1430 1426 1421 1417 1413 1410 1406 1403 1400 1398 1396 1394 1393 1393 1393 1392 1392 1392 1392 1392 1391 1391 1390 1389 1387 1386 1385 1383 1382 1380 1379 1378 1377 1377 1377 1377 1377 1378
1444 1440 1436 1432 1428 1424 1420 1415 1411 1407 1404 1400 1397 1393 1391 1389 1387 1387 1386 1386 1385 1386 1386 1386 1385 1385 1384 1384 1382 1381 1380 1378 1377 1375 1374 1373 1372 1371 1371 1370 1371 1371 1372
1439 1435 1430 1426 1422 1418 1414 1410 1406 1402 1398 1394 1390 1387 1385 1383 1381 1380 1380 1379 1379 1379 1380 1380 1380 1379 1379 1378 1377 1375 1373 1372 1370 1368 1367 1366 1365 1365 1364 1364 1365 1365 1366
1433 1429 1424 1420 1416 1412 1408 1404 1400 1396 1392 1389 1385 1382 1380 1378 1376 1375 1374 1374 1374 1374 1374 1374 1374 1374 1373 1372 1370 1369 1367 1365 1363 1362 1360 1359 1358 1358 1358 1358 1359 1360 1361
1427 1423 1419 1415 1411 1407 1403 1399 1395 1391 1387 1384 1381 1378 1376 1373 1372 1371 1370 1369 1369 1369 1369 1369 1369 1368 1367 1366 1364 1362 1360 1358 1356 1355 1353 1352 1352 1351 1352 1352 1353 1354 1355